CW8430 Weather Reports


Display with metric or nautical units.
time (UTC)temp
F
wind
direction
speed
MPH
gust
MPH
rain 1hr
in
rain 24hr
in
rain mn
in
humidity
%
barometer
mb
20260508140630 41 44 0.0 1.0 0.00 0.00 0.00 78 1018.7
20260508135620 40 44 2.0 3.0 0.00 0.00 0.00 80 1018.8
20260508134629 39 44 1.0 3.0 0.00 0.00 0.00 81 1018.7
20260508133616 37 44 0.0 0.0 0.00 0.00 0.00 84 1018.6
20260508132627 36 44 0.0 2.0 0.00 0.00 0.00 83 1018.5
20260508131612 35 44 1.0 2.0 0.00 0.00 0.00 84 1018.3
20260508130618 34 44 1.0 4.0 0.00 0.00 0.00 84 1018.2
20260508125612 32 290 1.0 3.0 0.00 0.00 0.00 82 1018.1
20260508124616 32 290 2.0 3.0 0.00 0.00 0.00 81 1018.0
20260508123618 32 263 2.0 4.0 0.00 0.00 0.00 80 1017.8
20260508122627 34 263 2.0 3.0 0.00 0.00 0.00 79 1017.8
20260508121629 34 263 3.0 3.0 0.00 0.00 0.00 79 1017.8
20260508120614 34 263 1.0 2.0 0.00 0.00 0.00 78 1017.7
20260508115626 35 263 1.0 6.0 0.00 0.00 0.00 77 1017.6
20260508114614 36 263 3.0 4.0 0.00 0.00 0.00 73 1017.4
20260508113644 36 161 0.0 2.0 0.00 0.00 0.00 73 1017.4
20260508112630 38 161 0.0 3.0 0.00 0.00 0.00 70 1017.4
20260508111614 39 161 0.0 3.0 0.00 0.00 0.00 70 1017.4
20260508110619 40 161 1.0 7.0 0.00 0.00 0.00 71 1017.4
20260508105619 39 209 3.0 5.0 0.00 0.00 0.00 73 1017.4
20260508104623 40 247 3.0 6.0 0.00 0.00 0.00 72 1017.4
20260508103631 40 166 6.0 8.0 0.00 0.00 0.00 73 1017.5
20260508102640 40 182 6.0 8.0 0.00 0.00 0.00 74 1017.4
20260508101628 39 185 5.0 7.0 0.00 0.00 0.00 74 1017.3
20260508100612 40 235 4.0 6.0 0.00 0.00 0.00 72 1017.3
20260508095624 40 191 7.0 10.0 0.00 0.00 0.00 73 1017.2
20260508094631 40 184 8.0 11.0 0.00 0.00 0.00 73 1017.1
20260508093637 39 219 4.0 7.0 0.00 0.00 0.00 72 1017.1
20260508092625 40 153 2.0 9.0 0.00 0.00 0.00 71 1016.9
20260508091614 40 204 6.0 8.0 0.00 0.00 0.00 69 1016.9
20260508090624 41 190 9.0 12.0 0.00 0.00 0.00 68 1016.8
20260508085618 40 240 4.0 7.0 0.00 0.00 0.00 68 1017.0
20260508084627 40 192 8.0 11.0 0.00 0.00 0.00 71 1017.0
20260508083652 41 225 4.0 8.0 0.00 0.00 0.00 70 1017.2
20260508082620 41 213 4.0 7.0 0.00 0.00 0.00 71 1017.3
20260508081648 41 234 4.0 9.0 0.00 0.00 0.00 71 1017.3
20260508080620 41 171 5.0 8.0 0.00 0.00 0.00 73 1017.4
20260508075613 41 234 3.0 6.0 0.00 0.00 0.00 72 1017.5
20260508074622 41 189 3.0 5.0 0.00 0.00 0.00 73 1017.5
20260508073649 41 242 3.0 5.0 0.00 0.00 0.00 72 1017.6
20260508072613 41 188 3.0 5.0 0.00 0.00 0.00 74 1017.6
20260508071619 41 173 5.0 7.0 0.00 0.00 0.00 72 1017.6
20260508070627 41 228 3.0 8.0 0.00 0.00 0.00 72 1017.6
20260508065620 41 205 4.0 5.0 0.00 0.00 0.00 73 1017.6
20260508064624 42 205 3.0 4.0 0.00 0.00 0.00 72 1017.6
20260508063635 43 202 3.0 5.0 0.00 0.00 0.00 71 1017.5
20260508062622 43 244 4.0 5.0 0.00 0.00 0.00 72 1017.5
20260508061629 43 211 3.0 4.0 0.00 0.00 0.00 72 1017.4
20260508060631 43 211 3.0 5.0 0.00 0.00 0.00 69 1017.4
20260508055644 45 219 4.0 7.0 0.00 0.00 0.00 68 1017.4
20260508054614 45 215 3.0 6.0 0.00 0.00 0.00 68 1017.5
20260508053623 45 187 3.0 7.0 0.00 0.00 0.00 67 1017.4
20260508052625 45 219 3.0 5.0 0.00 0.00 0.00 67 1017.5
20260508051633 46 205 4.0 6.0 0.00 0.00 0.00 67 1017.4
20260508050636 45 202 3.0 5.0 0.00 0.00 0.00 69 1017.4
20260508045614 46 170 4.0 6.0 0.00 0.00 0.00 68 1017.4
20260508044617 45 208 5.0 8.0 0.00 0.00 0.00 69 1017.3
20260508043626 45 188 4.0 6.0 0.00 0.00 0.00 70 1017.3
20260508042615 45 241 3.0 7.0 0.00 0.00 0.00 70 1017.3
20260508041623 46 263 5.0 7.0 0.00 0.00 0.00 67 1017.2
20260508040630 47 240 5.0 7.0 0.00 0.00 0.00 65 1017.3
20260508035644 47 211 4.0 6.0 0.00 0.00 0.00 68 1017.2
20260508034650 46 250 4.0 7.0 0.00 0.00 0.00 70 1017.3
20260508033620 46 257 5.0 7.0 0.00 0.00 0.00 70 1017.1
20260508032624 46 267 4.0 7.0 0.00 0.00 0.00 68 1017.0
20260508031612 48 263 6.0 8.0 0.00 0.00 0.00 63 1016.8
20260508030616 48 258 7.0 8.0 0.00 0.00 0.00 63 1016.7
20260508025643 49 268 5.0 7.0 0.00 0.00 0.00 61 1016.6
20260508024630 51 263 6.0 8.0 0.00 0.00 0.00 58 1016.5
20260508023632 51 263 6.0 7.0 0.00 0.00 0.00 58 1016.5
20260508022620 52 265 6.0 8.0 0.00 0.00 0.00 56 1016.4
20260508020648 57 259 5.0 7.0 0.00 0.00 0.00 48 1016.2
20260508015642 59 263 8.0 11.0 0.00 0.00 0.00 42 1016.2
20260508014627 59 273 7.0 13.0 0.00 0.00 0.00 42 1016.2
20260508013615 60 283 11.0 17.0 0.00 0.00 0.00 37 1016.2
20260508012619 61 286 13.0 17.0 0.00 0.00 0.00 36 1016.2
20260508011628 62 274 10.0 18.0 0.00 0.00 0.00 36 1016.1
20260508010632 62 273 12.0 17.0 0.00 0.00 0.00 36 1016.2
20260508005626 62 298 16.0 19.0 0.00 0.00 0.00 35 1016.2
20260508004636 62 302 15.0 23.0 0.00 0.00 0.00 34 1016.1
20260508003621 63 294 15.0 25.0 0.00 0.00 0.00 33 1016.1
20260508002631 63 305 13.0 23.0 0.00 0.00 0.00 33 1016.0
20260508001616 63 267 10.0 14.0 0.00 0.00 0.00 33 1016.0
20260508000614 62 257 9.0 17.0 0.00 0.00 0.00 34 1015.9
20260507235614 63 286 14.0 18.0 0.00 0.00 0.00 34 1016.0
20260507234623 63 310 12.0 20.0 0.00 0.00 0.00 31 1016.1
20260507233630 63 274 15.0 21.0 0.00 0.00 0.00 30 1016.3
20260507232615 64 265 11.0 22.0 0.00 0.00 0.00 32 1016.3
20260507231623 63 278 11.0 17.0 0.00 0.00 0.00 31 1016.2
20260507230635 62 273 13.0 21.0 0.00 0.00 0.00 32 1016.4
20260507225651 63 293 17.0 26.0 0.00 0.00 0.00 28 1016.3
20260507224621 62 304 14.0 23.0 0.00 0.00 0.00 32 1016.7
20260507223650 62 243 9.0 17.0 0.00 0.00 0.00 31 1016.8
20260507222616 62 261 11.0 19.0 0.00 0.00 0.00 34 1017.0
20260507221627 60 250 9.0 13.0 0.00 0.00 0.00 35 1017.2
20260507220613 60 262 10.0 18.0 0.00 0.00 0.00 37 1017.4
20260507215629 60 273 9.0 17.0 0.00 0.00 0.00 37 1017.5
20260507214616 60 224 7.0 14.0 0.00 0.00 0.00 37 1017.6
20260507213625 60 246 11.0 17.0 0.00 0.00 0.00 38 1017.8
20260507212636 60 250 10.0 14.0 0.00 0.00 0.00 37 1017.8
20260507211622 59 263 11.0 15.0 0.00 0.00 0.00 40 1017.9
20260507210631 60 266 13.0 17.0 0.00 0.00 0.00 37 1017.9
20260507205626 60 256 11.0 17.0 0.00 0.00 0.00 39 1017.9
20260507204615 60 249 11.0 16.0 0.00 0.00 0.00 37 1018.0
20260507203619 60 275 13.0 17.0 0.00 0.00 0.00 40 1018.0
20260507202625 61 254 11.0 18.0 0.00 0.00 0.00 37 1018.0
20260507201628 61 261 10.0 19.0 0.00 0.00 0.00 37 1018.0
20260507200621 61 275 14.0 20.0 0.00 0.00 0.00 37 1017.9
20260507195617 62 249 14.0 18.0 0.00 0.00 0.00 37 1017.9
20260507194643 62 271 16.0 21.0 0.00 0.00 0.00 37 1017.8
20260507193630 62 275 14.0 21.0 0.00 0.00 0.00 35 1017.7
20260507192619 62 265 12.0 16.0 0.00 0.00 0.00 38 1017.9
20260507191628 63 245 13.0 18.0 0.00 0.00 0.00 35 1017.8
20260507190615 63 286 11.0 22.0 0.00 0.00 0.00 39 1017.9
20260507185630 62 271 15.0 21.0 0.00 0.00 0.00 39 1018.0
20260507184617 62 275 13.0 22.0 0.00 0.00 0.00 35 1017.9
20260507183644 63 253 14.0 20.0 0.00 0.00 0.00 33 1018.0
20260507182650 64 258 13.0 21.0 0.00 0.00 0.00 35 1018.0
20260507181618 63 250 15.0 20.0 0.00 0.00 0.00 36 1018.1
20260507180624 63 269 16.0 22.0 0.00 0.00 0.00 36 1018.2
20260507175621 63 282 12.0 18.0 0.00 0.00 0.00 34 1018.2
20260507174631 62 264 13.0 21.0 0.00 0.00 0.00 34 1018.2
20260507173621 62 256 14.0 20.0 0.00 0.00 0.00 34 1018.3
20260507172646 61 298 10.0 17.0 0.00 0.00 0.00 37 1018.2
20260507171616 60 257 11.0 17.0 0.00 0.00 0.00 35 1018.2
20260507170631 59 223 11.0 19.0 0.00 0.00 0.00 34 1018.4
20260507165613 60 220 10.0 17.0 0.00 0.00 0.00 34 1018.4
20260507164621 59 225 11.0 18.0 0.00 0.00 0.00 33 1018.4
20260507163628 59 246 12.0 20.0 0.00 0.00 0.00 33 1018.6
20260507162643 58 255 6.0 13.0 0.00 0.00 0.00 39 1018.7
20260507161629 56 184 4.0 10.0 0.00 0.00 0.00 45 1018.7
20260507160616 55 192 3.0 5.0 0.00 0.00 0.00 44 1018.8
20260507155614 54 225 1.0 8.0 0.00 0.04 0.00 46 1019.0
20260507154622 54 163 5.0 7.0 0.00 0.04 0.00 45 1019.1
20260507153630 53 159 3.0 6.0 0.00 0.04 0.00 47 1019.2
20260507152618 52 155 2.0 4.0 0.00 0.04 0.00 49 1019.4
20260507151625 51 61 1.0 5.0 0.00 0.04 0.00 54 1019.4
20260507150638 49 42 2.0 11.0 0.00 0.04 0.00 56 1019.5
20260507145617 50 73 4.0 7.0 0.00 0.08 0.00 57 1019.6
20260507144627 50 49 3.0 9.0 0.00 0.08 0.00 54 1019.7
20260507143614 50 34 3.0 10.0 0.00 0.08 0.00 53 1019.7
20260507142628 50 167 6.0 8.0 0.00 0.08 0.00 48 1019.5
20260507141615 48 246 2.0 3.0 0.00 0.08 0.00 56 1019.2